This is the latest recevied weather packets stored in our database for station/object DH8TOM-3. If no packets are shown the sender has not sent any weather packets the latest 10 day(s).
| Time | Temp. | Humidity | Pressure | Rain* | Wind** | Luminosity | Snow |
|---|---|---|---|---|---|---|---|
| 1777447357 | 11.67° C | 51% | 1026.8 hPa | 0 mm | - | - | - |
| 1777447056 | 11.67° C | 51% | 1026.8 hPa | 0 mm | - | - | - |
| 1777446755 | 10.56° C | 52% | 1026.7 hPa | 0 mm | - | - | - |
| 1777446454 | 10.56° C | 52% | 1026.7 hPa | 0 mm | - | - | - |
| 1777446152 | 9.44° C | 56% | 1026.6 hPa | 0 mm | - | - | - |
| 1777445852 | 9.44° C | 56% | 1026.6 hPa | 0 mm | - | - | - |
| 1777445551 | 9.44° C | 55% | 1026.4 hPa | 0 mm | - | - | - |
| 1777445250 | 9.44° C | 55% | 1026.4 hPa | 0 mm | - | - | - |
| 1777444949 | 9.44° C | 55% | 1026.4 hPa | 0 mm | - | - | - |
| 1777444648 | 9.44° C | 55% | 1026.4 hPa | 0 mm | - | - | - |
| 1777444347 | 8.89° C | 55% | 1026.3 hPa | 0 mm | - | - | - |
| 1777444046 | 8.89° C | 55% | 1026.3 hPa | 0 mm | - | - | - |
| 1777443745 | 8.89° C | 55% | 1026.1 hPa | 0 mm | - | - | - |
| 1777443445 | 8.89° C | 55% | 1026.1 hPa | 0 mm | - | - | - |
| 1777443144 | 8.33° C | 58% | 1026.1 hPa | 0 mm | - | - | - |
| 1777442842 | 8.33° C | 58% | 1026.1 hPa | 0 mm | - | - | - |
| 1777442541 | 7.78° C | 57% | 1025.9 hPa | 0 mm | - | - | - |
| 1777442240 | 7.78° C | 57% | 1025.9 hPa | 0 mm | - | - | - |
| 1777441939 | 7.22° C | 59% | 1025.8 hPa | 0 mm | - | - | - |
| 1777441638 | 7.22° C | 59% | 1025.8 hPa | 0 mm | - | - | - |
| 1777441337 | 6.67° C | 56% | 1025.8 hPa | 0 mm | - | - | - |
| 1777441036 | 6.67° C | 56% | 1025.8 hPa | 0 mm | - | - | - |
| 1777440735 | 6.67° C | 55% | 1025.6 hPa | 0 mm | - | - | - |
| 1777440434 | 6.67° C | 55% | 1025.6 hPa | 0 mm | - | - | - |
| 1777440132 | 6.67° C | 55% | 1025.6 hPa | 0 mm | - | - | - |
* Rain latest hour (hover to see other rain measurements)
** Current wind speed in m/s (hover to see current wind gust speed)